Probability
24 31 39 40 35 35 38 38 35 32 29 26 23 21 19 17 14 14 15 15 17 23 25 24 22 23 23 20 14 8 6 4 4 4 3 3 2 3 5 6 6 5 5
22 25 29 29 26 25 24 22 21 21 19 17 15 13 13 12 10 10 11 11 14 18 20 19 17 17 18 16 13 10 7 6 5 5 4 3 2 2 4 6 7 6 6
14 14 15 14 13 12 10 9 10 10 8 6 5 5 6 7 6 6 7 6 7 11 14 14 14 14 13 11 9 8 6 6 5 5 6 5 3 2 4 5 6 5 5
5 5 4 5 5 5 5 7 7 7 4 1 1 2 4 5 5 4 3 2 3 5 9 12 14 15 13 9 7 5 5 5 4 5 6 5 3 2 3 3 3 3 2
1 1 1 2 2 2 4 5 5 5 3 1 0 1 3 5 4 3 1 1 1 3 5 9 14 17 16 14 13 11 10 8 7 6 7 5 3 1 1 1 1 1 0
1 1 1 2 1 1 3 3 4 4 3 2 1 2 4 6 5 2 2 2 1 1 3 6 11 16 18 21 23 21 18 16 15 14 11 8 4 2 0 0 0 0 0
2 2 2 3 2 1 1 1 2 3 3 3 3 4 6 6 4 2 2 2 2 1 1 4 7 11 14 19 23 25 25 25 25 25 21 17 12 7 4 2 0 0 0
1 1 1 2 2 1 0 0 1 1 2 2 4 5 6 4 3 2 1 1 2 3 2 2 4 6 8 11 16 21 25 29 31 31 31 29 23 17 12 8 4 2 1
0 0 0 1 1 0 0 0 1 1 1 1 2 4 4 3 3 3 2 1 2 3 3 1 2 3 4 5 8 13 18 25 29 31 34 35 31 25 22 17 12 8 6
0 0 0 0 0 0 0 0 1 2 1 1 1 1 2 3 3 3 3 2 3 3 2 1 0 1 2 2 3 5 9 13 19 24 27 31 33 31 29 26 23 19 15
0 0 0 0 0 0 0 0 1 2 1 0 0 0 1 2 3 3 3 3 3 3 2 1 0 0 0 1 1 1 3 5 9 12 14 19 25 30 32 32 32 30 28
0 0 0 0 0 0 0 0 0 0 0 0 0 0 0 1 2 2 2 3 3 3 2 1 0 0 0 0 0 0 1 1 3 4 5 7 12 19 25 30 33 34 32
0 0 0 0 0 0 0 0 0 0 0 0 0 0 0 0 1 1 1 1 2 2 1 0 0 1 1 0 0 0 0 0 1 1 2 3 5 9 14 20 25 27 25
0 0 0 0 0 0 0 0 0 0 0 0 0 0 0 0 0 0 0 0 1 1 0 0 1 2 2 1 0 0 0 0 0 0 1 1 2 4 7 11 15 17 16
0 0 0 0 0 0 0 0 0 0 0 0 0 0 0 0 0 0 0 0 0 0 0 0 1 2 2 1 0 0 0 0 0 0 0 0 1 2 3 5 7 8 9
0 0 0 0 0 0 0 0 0 0 0 0 0 0 0 0 0 0 0 0 0 0 0 0 0 1 1 1 0 0 0 0 0 0 0 0 0 1 1 1 1 2 2
0 0 0 0 0 0 0 0 0 0 0 0 0 0 0 0 0 0 0 1 1 1 1 1 0 0 0 0 0 0 0 0 0 0 0 0 0 0 0 0 0 0 0
0 0 0 0 0 0 0 0 0 0 0 0 0 0 0 0 0 0 1 2 3 3 3 2 1 0 0 0 0 0 0 0 0 0 0 0 0 0 0 0 0 0 0
0 0 0 0 0 0 0 0 0 0 0 0 0 0 0 0 0 0 0 2 3 4 3 2 1 0 0 0 0 0 0 0 0 0 0 0 0 0 0 0 0 0 0
0 0 0 0 0 0 0 0 0 0 0 0 0 0 0 0 0 0 0 0 1 1 1 1 0 0 0 0 0 0 0 0 0 0 0 0 0 0 0 0 0 0 0
0 0 0 0 0 0 0 0 0 0 0 0 0 0 0 0 0 0 0 0 0 0 0 0 0 0 0 0 0 0 0 0 0 0 0 0 0 0 0 0 0 0 0
0 0 0 0 0 0 0 0 0 0 0 0 0 0 0 0 0 0 0 0 0 0 0 0 0 0 0 0 0 0 0 0 0 0 0 0 0 0 0 0 0 0 0
0 0 0 0 0 0 0 0 0 0 0 0 0 0 0 0 0 0 0 0 0 0 0 0 0 0 0 0 0 0 0 0 0 0 0 0 0 0 0 0 0 0 0
0 0 0 0 0 0 0 0 0 0 0 0 0 0 0 0 0 0 0 0 0 0 0 0 0 0 0 0 0 0 0 0 0 0 0 0 0 0 0 0 0 0 0
0 0 0 0 0 0 0 0 0 0 0 0 0 0 0 0 0 0 0 0 0 0 0 0 0 0 0 0 0 0 0 0 0 0 0 0 0 0 0 0 0 0 0
0 0 0 0 0 0 0 0 0 0 0 0 0 0 0 0 0 0 0 0 0 0 0 0 0 0 0 0 0 0 0 0 0 0 0 0 0 0 0 0 0 0 0
Wind_Speed
9 8 8 7 7 7 6 4 3 3 2 2 3 3 4 5 5 5 7 8 7 7 7 6 6 6 6 6 7 7 7 7 5 6 7 7 7 7 6 7 7 8 8
8 8 7 7 6 6 4 3 1 2 2 2 3 3 5 4 3 4 4 4 5 5 6 5 5 6 5 6 7 7 6 6 5 6 5 5 6 6 6 5 6 6 6
7 6 6 6 5 5 4 3 3 2 3 3 3 2 3 3 3 3 3 3 3 3 5 6 6 6 6 6 7 7 8 7 6 6 5 5 4 3 5 5 4 4 4
5 5 5 5 4 4 3 2 2 2 2 3 3 4 4 4 4 4 4 4 3 3 4 5 6 6 6 6 7 8 7 7 6 5 5 5 4 4 3 6 5 5 5
4 3 3 2 2 2 1 1 1 2 2 3 3 4 4 3 3 3 3 3 3 2 3 4 4 5 6 7 7 6 8 7 7 6 5 6 5 6 5 3 4 4 4
2 1 0 1 1 2 2 3 3 3 4 4 4 4 4 4 4 4 3 3 2 1 2 3 3 4 4 5 6 7 9 8 8 6 6 6 6 6 6 5 5 4 3
2 2 3 3 4 5 5 6 6 7 6 7 6 6 5 5 5 5 4 4 4 2 2 3 3 3 3 4 5 6 8 9 9 9 7 7 7 5 5 6 5 4 3
4 4 5 6 7 8 8 8 8 9 9 9 9 8 8 8 7 5 6 6 5 4 2 3 3 4 4 4 4 5 7 7 8 10 9 6 7 6 6 6 6 5 5
5 6 7 8 9 10 10 10 10 11 11 11 11 11 11 11 10 9 8 8 6 6 5 5 5 4 4 4 4 5 5 6 7 7 8 8 7 6 6 6 6 7 6
7 8 9 9 10 10 10 11 11 12 12 13 12 11 11 12 12 12 11 10 10 9 8 8 7 7 6 6 5 5 5 5 6 6 7 7 6 6 6 6 6 7 7
9 10 10 10 11 11 12 12 12 13 12 13 13 13 13 13 13 13 13 12 12 11 11 11 10 9 9 8 7 7 6 7 7 7 7 8 8 6 6 6 7 7 7
11 12 12 12 12 13 13 13 13 14 14 14 14 14 14 14 14 15 14 14 14 13 14 13 13 12 11 10 10 10 9 8 9 8 8 8 7 8 7 6 8 7 7
12 13 13 13 13 14 14 15 15 16 16 16 16 16 16 15 15 16 15 14 14 14 15 14 14 14 13 12 11 11 10 10 9 9 9 8 8 9 7 8 8 7 7
13 14 13 14 14 15 16 16 16 16 17 17 17 17 17 17 16 16 15 15 15 15 15 15 15 15 15 14 13 12 11 11 10 10 9 9 9 10 9 8 8 7 7
15 15 15 15 16 16 16 16 17 17 17 17 18 18 17 17 17 16 16 16 15 15 15 15 15 15 14 14 14 13 13 12 12 11 11 11 10 8 7 7 7 7 7
16 16 17 17 17 17 17 17 17 17 17 18 18 18 17 17 17 17 17 16 15 15 14 15 15 16 14 12 13 13 13 11 12 12 11 11 11 11 11 10 9 9 9
17 17 17 17 17 17 17 17 17 17 17 17 18 17 17 17 16 17 17 16 15 14 14 14 15 15 15 11 13 14 13 13 12 12 11 10 10 12 12 13 14 13 14
17 17 17 17 17 17 17 17 17 17 17 17 17 17 16 16 16 16 16 15 13 13 12 13 14 13 13 12 14 15 15 14 13 13 12 12 11 10 10 11 11 12 13
16 16 16 17 17 17 17 17 17 17 17 17 17 16 16 16 16 16 15 13 12 12 11 11 12 13 12 12 14 15 13 13 15 14 13 13 13 9 8 11 11 11 11
15 15 16 17 17 16 17 17 17 17 17 17 17 16 16 16 16 15 15 13 12 12 11 11 11 12 12 11 14 16 11 12 12 12 12 12 12 8 12 12 12 12 11
16 16 16 15 15 16 16 17 17 17 17 16 16 16 15 15 15 14 12 11 10 11 11 11 10 11 11 10 13 15 11 11 11 10 10 10 14 11 12 12 11 9 8
16 16 15 15 15 15 15 16 17 16 16 16 16 15 14 13 12 12 12 11 10 10 10 9 9 8 8 9 12 15 15 11 10 9 9 7 13 14 13 11 9 6 6
15 15 15 16 15 15 15 16 16 16 15 15 15 14 14 12 11 11 10 9 8 7 6 6 7 7 6 7 11 14 14 13 10 8 4 3 10 11 11 12 10 9 9
15 14 15 16 15 15 15 15 15 15 15 15 14 13 12 12 10 8 7 7 6 6 5 5 6 5 5 6 7 9 10 12 12 10 7 9 9 8 7 8 11 10 9
14 14 14 15 16 16 15 15 14 14 15 14 13 12 11 10 9 8 6 6 5 4 5 4 4 4 4 3 4 5 7 7 8 8 8 8 9 10 10 9 9 9 9
14 14 14 15 16 15 15 14 13 14 14 12 11 9 9 8 7 7 5 3 5 4 4 5 4 3 1 2 3 4 4 4 5 7 8 8 9 9 9 9 9 9 9
Wind_Direction
66 63 64 67 74 73 67 57 45 29 346 312 296 294 292 285 279 269 271 271 262 251 245 244 235 232 234 238 233 233 232 239 243 252 249 236 233 238 239 235 239 227 228
77 70 71 73 73 76 72 68 49 20 337 334 305 294 299 297 295 287 275 282 278 270 254 250 247 236 239 240 238 230 244 236 223 247 256 236 202 210 219 219 224 232 225
80 80 78 73 67 59 53 45 28 6 352 335 310 304 284 283 299 310 303 304 302 287 275 259 252 243 242 236 235 228 230 237 223 231 253 260 239 182 183 208 217 219 233
87 86 85 78 70 64 62 53 29 4 347 321 339 334 331 330 335 326 330 327 328 302 272 263 253 247 247 248 239 227 228 235 231 209 233 270 318 273 194 187 190 202 226
102 95 85 69 59 47 20 9 347 335 329 326 327 317 331 332 333 329 336 327 337 323 297 280 264 252 251 247 248 235 234 230 237 231 214 212 219 247 264 214 191 204 210
132 130 146 301 300 294 297 304 301 297 298 299 307 306 314 314 321 318 322 316 320 323 329 304 293 276 269 257 247 241 232 240 242 246 236 225 222 219 230 236 226 227 217
211 244 275 289 292 289 294 296 293 289 287 287 286 284 282 281 279 290 303 300 303 300 305 305 297 286 278 272 263 250 248 238 236 236 238 238 242 241 235 243 239 237 231
249 268 281 289 292 294 293 291 289 286 285 282 279 277 274 273 280 275 288 288 287 290 282 265 270 274 272 266 260 261 255 249 243 241 241 242 241 236 232 235 240 235 226
278 285 292 298 301 303 301 300 297 292 288 284 280 273 269 272 279 277 263 267 263 262 247 244 247 251 256 266 268 261 258 260 251 248 242 241 241 239 237 234 237 245 245
296 301 303 306 307 306 305 303 298 295 293 290 285 281 276 270 267 268 271 270 266 258 253 246 241 237 234 235 243 255 254 254 256 255 250 245 244 240 237 233 231 238 253
308 310 311 314 313 312 309 307 304 302 298 295 293 289 285 280 274 267 265 263 260 257 250 245 242 238 234 229 227 237 238 242 249 251 250 250 249 243 238 233 229 227 234
313 315 318 319 316 314 313 312 310 307 304 301 296 290 287 283 279 275 271 267 262 257 251 247 243 242 238 232 230 233 231 230 235 237 240 245 247 244 244 239 233 226 227
315 317 318 318 316 315 314 311 309 307 305 303 299 294 289 285 282 279 275 270 265 260 257 251 246 243 241 236 233 235 235 233 233 231 230 236 238 241 239 237 238 231 223
318 318 318 315 317 315 312 311 309 308 306 303 299 295 292 288 285 282 279 273 267 262 256 250 246 243 241 237 233 232 233 235 234 233 231 230 233 234 238 237 238 240 238
320 321 320 318 316 314 313 311 309 308 306 302 297 295 293 290 287 283 279 274 269 265 259 252 247 242 238 235 232 232 232 232 234 232 229 229 228 233 235 245 241 236 235
322 322 319 318 316 315 313 311 308 307 304 300 297 296 295 292 289 286 281 276 270 266 263 257 250 243 239 225 214 228 238 234 235 236 232 229 217 219 220 235 245 248 243
322 320 319 316 315 313 313 309 308 306 303 300 299 297 295 292 292 289 285 280 274 268 261 255 251 249 244 222 201 210 234 238 235 235 233 235 225 208 219 218 223 233 238
319 319 317 316 315 314 312 310 309 308 305 302 300 299 297 294 291 288 284 282 278 272 267 262 255 250 243 213 202 203 224 237 236 234 233 235 241 225 221 228 229 233 229
318 316 316 316 315 314 316 314 310 309 306 304 303 302 300 296 292 288 284 281 277 271 264 258 254 251 244 213 200 200 224 229 232 232 232 232 234 218 200 229 237 239 239
319 318 317 316 316 318 318 313 310 309 307 307 307 304 301 297 293 289 285 280 276 271 267 258 249 247 243 216 199 201 223 226 226 225 229 225 232 212 190 225 235 238 239
319 319 318 317 318 319 318 312 310 310 311 310 307 304 302 298 293 287 284 280 275 272 266 261 251 243 241 217 198 198 222 225 225 226 225 220 195 203 198 222 241 245 254
322 323 320 319 320 320 317 312 310 313 314 311 307 305 304 300 297 294 289 283 277 270 262 255 251 239 230 223 198 195 215 236 231 230 231 217 176 191 200 215 234 239 247
323 323 322 320 321 321 319 314 315 317 315 312 309 308 305 301 298 293 291 288 279 267 259 251 246 238 224 206 192 193 207 223 235 237 231 160 164 181 201 219 221 221 230
323 325 323 320 320 321 320 316 316 318 316 312 310 309 307 304 302 295 289 287 285 276 267 258 252 243 225 209 194 195 198 207 220 228 196 172 178 214 237 204 204 220 229
324 325 321 319 319 320 319 319 322 321 317 313 310 310 307 306 306 303 295 293 288 286 279 276 267 258 241 210 195 208 207 207 209 210 209 211 205 208 215 220 219 217 217
324 323 322 321 319 320 321 324 326 323 318 315 315 314 311 312 314 313 310 277 272 288 268 264 282 299 42 133 168 198 206 195 187 210 216 216 216 217 218 218 215 214 218